Vertical_Velocity
4 4 -1 0 9 -0 -6 -4 -2 -1 -2 -3 -4 1 -0 -4 1 0 -2 -1 -0 -2 -1 -3 -1 -1 -3 -2 -1 -1 1 0 1 0 3 7 0 2 8 -0 8 3 -7
2 -1 10 -1 -5 -4 -4 -4 -2 -0 -3 -4 0 -1 -3 -1 1 -1 -2 -1 -1 -4 -0 -2 -3 -2 -0 -1 -1 -1 -1 0 0 -1 -1 7 8 1 16 1 -3 4 1
5 3 -4 -2 -2 -3 -3 -1 -2 -2 -2 0 -1 -4 -3 0 0 0 -0 0 -0 -2 -1 -3 1 -4 -0 -1 -1 1 0 -0 0 0 1 0 -1 0 -3 4 9 -3 3
-2 -0 -1 -1 -0 -2 -1 1 -1 -1 0 -4 -1 2 -3 -2 -0 1 1 0 0 -1 1 -4 1 -2 -3 -2 -0 0 2 -1 -1 -0 1 1 1 0 -1 1 -2 -3 6
-1 -0 0 -4 -0 -1 -0 -1 0 -0 -2 -2 -3 1 -3 -2 0 1 1 1 -0 -1 -1 -1 -1 -1 2 -2 -3 0 2 1 1 1 -1 1 0 1 2 -1 -3 -2 -2
2 1 -3 -3 1 1 0 -2 -2 -2 -2 1 -1 -2 -2 -0 1 1 -1 1 -0 -0 -1 -2 -1 -1 -1 1 0 -1 2 2 1 1 1 1 -1 -0 -1 -2 3 -1 -5
-1 1 -1 1 2 -0 -0 -4 1 -1 1 -2 -2 -2 -2 1 1 0 -1 0 -0 0 -1 0 -1 -1 -1 0 -0 1 -1 -2 1 3 1 3 1 3 5 5 2 1 1
-0 1 1 0 -0 -2 -1 -4 -0 0 -1 -2 -1 -1 -0 -0 -1 -1 -0 0 1 -0 -0 0 -0 -1 -1 1 -1 1 -0 -1 0 -0 -4 0 4 4 2 4 6 4 -1
1 -0 -3 -2 -1 1 -3 -1 1 -0 -1 -0 -1 -0 -1 -0 -1 -1 -0 0 -0 -0 -1 -0 -1 -0 -1 0 1 0 0 0 0 1 2 3 1 -4 -4 -1 5 5 6
-0 0 -1 0 1 -3 -2 0 -0 -1 -0 1 0 -1 -1 -1 -0 -0 1 1 1 1 -0 -1 -1 -1 -1 -1 -1 1 0 1 0 -0 -0 -1 1 3 4 3 1 -2 -6
-1 -3 1 1 -3 -1 -1 -1 -1 -0 -0 -0 -0 -1 -2 -1 -1 -0 1 0 0 -0 -0 -0 -0 -0 -1 0 -1 -0 -1 0 0 1 1 1 1 0 -1 0 1 3 3
-2 0 -0 -0 -0 -1 -1 -2 -1 -1 -1 -0 -0 -0 -1 -1 -1 -1 -0 -0 0 0 -0 -2 -2 -1 -1 -1 -0 -1 -1 -1 -1 -1 -1 -2 -3 -2 1 2 1 1 1
1 -1 -0 0 -2 -1 -0 -1 -1 -1 -1 -1 -1 -1 -1 -1 -2 -1 -1 -1 -1 -0 0 1 1 -1 -2 -1 -1 -1 -1 -1 -1 -1 -1 0 1 -1 -2 -2 -3 -2 -1
-0 0 0 -1 -2 -1 -0 -1 0 1 -0 -1 -1 -1 -0 -0 -0 -1 -2 -2 -2 -2 -2 -1 -1 -1 -1 -2 -3 -2 -2 -2 -1 1 2 1 1 1 2 -0 -2 -2 -2
2 0 -1 -0 -0 -1 -1 0 1 1 0 -0 -0 0 0 0 -1 -1 -1 -1 -2 -3 -3 -3 -3 -3 -3 -2 -1 -1 -0 -1 -1 -2 -3 -2 -1 1 1 1 1 1 0
-1 -2 -2 -1 1 -0 -1 -0 1 1 0 0 -0 0 -0 -1 -1 -1 -1 -1 -1 -2 -2 -2 -2 -2 -2 -2 -2 -2 -1 -1 -0 -1 -2 -2 -3 -3 -2 -1 -1 -0 1
-0 -1 -1 1 1 1 0 -0 -0 1 -0 0 0 -1 -0 -1 -2 0 1 -1 -1 -1 -1 -1 -2 -2 -2 -2 -2 -2 -1 -1 -2 -3 -3 -2 -2 -2 -2 -2 -2 -1 -0
0 0 -0 1 1 1 1 1 0 -1 0 1 0 -1 0 1 -2 -2 -1 -1 -0 -0 -0 -0 -1 -1 -1 -1 -2 -2 -2 -2 -2 -2 -2 -2 -2 -2 -2 -2 -2 -1 -1
-0 0 -1 1 2 2 1 1 1 1 1 0 0 1 -0 2 0 -3 -0 -0 -1 -1 -0 -1 -0 0 0 -0 -0 -1 -1 -2 -2 -2 -2 -2 -3 -2 -2 -2 -2 -2 -2
-0 -0 -0 0 2 2 0 0 1 1 1 1 1 -1 -1 2 3 0 -1 -1 0 -0 -1 -0 -0 -0 -0 -0 -1 -1 -1 -1 -2 -2 -2 -1 -1 -1 -0 -0 -1 -0 -0
2 -1 -1 0 1 1 -0 0 0 0 0 0 0 -0 -0 -0 -0 1 1 -0 -1 -1 -0 -0 0 0 -1 -2 -1 -1 -1 -1 -1 -1 -1 -1 -1 -1 -1 -1 -1 -1 -1
1 -2 -1 1 2 0 0 1 0 -0 -0 -0 0 -1 -0 -1 0 1 1 1 0 -0 0 0 0 0 -0 -0 -1 -0 -1 -0 -0 0 -1 -1 -1 -1 -1 -1 -1 -1 -1
2 -1 -0 1 2 1 0 1 0 -0 -0 0 0 -0 0 0 -0 0 0 0 0 0 -0 0 1 1 1 1 0 1 0 -1 -1 -0 -1 -1 -2 -2 -2 -1 -1 -2 -1
2 1 1 2 1 1 1 1 1 -0 0 -0 0 1 1 1 0 -0 -1 -1 -1 -0 -1 0 1 1 0 -1 -0 -0 -0 -0 -1 -1 -1 -1 -1 -1 -1 -1 -1 -2 -2
1 1 2 1 1 2 2 0 -0 1 0 -0 1 1 0 0 -0 -0 1 1 0 0 1 0 0 0 -0 -0 -0 -1 -1 -1 -1 -1 -2 -2 -2 -2 -2 -2 -2 -2 -2
0 1 1 2 2 1 -0 -0 1 0 0 1 0 -1 -1 -0 0 0 -0 -1 -1 0 1 1 1 0 -0 -1 -1 -0 -1 -2 -2 -1 -1 -1 -1 -2 -2 -2 -2 -2 -3
Height
5654 5653 5652 5649 5647 5644 5642 5639 5635 5630 5624 5619 5613 5607 5603 5598 5593 5589 5586 5582 5577 5571 5565 5558 5550 5542 5536 5530 5523 5518 5513 5510 5509 5509 5514 5517 5521 5523 5529 5533 5539 5544 5552
5645 5643 5642 5640 5638 5635 5632 5629 5624 5620 5615 5610 5604 5599 5595 5590 5586 5583 5580 5576 5572 5567 5562 5556 5549 5541 5534 5528 5521 5515 5511 5509 5508 5509 5512 5515 5518 5520 5523 5528 5532 5539 5545
5635 5635 5633 5631 5627 5625 5622 5618 5615 5610 5605 5600 5595 5592 5587 5582 5579 5576 5574 5571 5568 5564 5560 5554 5548 5541 5534 5528 5521 5516 5513 5511 5509 5509 5509 5511 5513 5515 5517 5522 5527 5532 5536
5626 5624 5623 5620 5618 5615 5612 5608 5605 5601 5596 5592 5588 5583 5579 5575 5571 5569 5568 5566 5563 5560 5556 5551 5547 5541 5536 5529 5523 5518 5515 5512 5510 5509 5508 5508 5508 5509 5512 5517 5521 5525 5527
5614 5614 5612 5611 5608 5605 5602 5599 5596 5592 5587 5583 5580 5576 5571 5568 5565 5562 5561 5560 5558 5556 5552 5549 5545 5540 5536 5531 5526 5520 5517 5513 5511 5509 5508 5507 5506 5507 5509 5512 5516 5520 5524
5604 5603 5602 5601 5599 5596 5593 5590 5587 5583 5579 5576 5572 5567 5564 5561 5558 5556 5555 5554 5552 5551 5548 5545 5542 5539 5535 5531 5527 5523 5520 5515 5512 5510 5508 5507 5506 5506 5507 5508 5511 5512 5516
5595 5594 5593 5592 5590 5587 5585 5582 5578 5575 5571 5567 5563 5560 5556 5554 5552 5550 5548 5547 5546 5544 5542 5540 5538 5535 5533 5530 5526 5523 5520 5517 5513 5511 5509 5508 5506 5505 5506 5507 5507 5508 5509
5587 5586 5584 5583 5581 5579 5576 5573 5570 5567 5563 5559 5556 5552 5549 5547 5546 5544 5542 5540 5539 5537 5536 5534 5533 5531 5529 5527 5524 5521 5519 5517 5514 5511 5509 5507 5506 5505 5504 5504 5504 5505 5504
5578 5577 5576 5574 5573 5570 5567 5564 5561 5558 5554 5551 5548 5545 5543 5540 5539 5537 5535 5533 5532 5530 5528 5527 5525 5524 5523 5522 5520 5518 5516 5514 5512 5510 5508 5507 5505 5503 5502 5501 5500 5500 5501
5569 5568 5566 5565 5563 5561 5558 5555 5552 5548 5545 5542 5541 5539 5536 5534 5531 5529 5528 5526 5524 5522 5521 5519 5517 5516 5515 5514 5513 5511 5510 5509 5507 5506 5504 5503 5501 5501 5500 5499 5499 5498 5498
5560 5559 5558 5556 5554 5551 5549 5546 5543 5540 5537 5535 5533 5531 5528 5525 5522 5520 5519 5517 5515 5514 5512 5510 5508 5507 5506 5505 5504 5503 5502 5501 5499 5498 5497 5496 5495 5494 5493 5493 5492 5492 5492
5551 5550 5549 5547 5545 5542 5539 5536 5534 5531 5529 5527 5525 5522 5519 5516 5513 5511 5509 5507 5505 5504 5502 5500 5499 5497 5496 5495 5494 5493 5492 5491 5490 5489 5487 5486 5486 5485 5484 5484 5484 5483 5483
5542 5541 5539 5537 5535 5533 5530 5527 5525 5524 5522 5519 5517 5514 5511 5508 5505 5503 5500 5498 5495 5493 5491 5490 5488 5487 5485 5484 5483 5482 5481 5480 5479 5478 5477 5476 5475 5475 5475 5474 5474 5473 5473
5532 5531 5529 5528 5525 5523 5521 5518 5517 5515 5513 5511 5509 5506 5503 5501 5499 5496 5493 5490 5487 5484 5482 5480 5478 5476 5474 5473 5472 5470 5469 5468 5467 5466 5465 5465 5464 5463 5462 5462 5462 5462 5461
5523 5522 5520 5518 5516 5513 5511 5510 5509 5507 5505 5503 5500 5498 5496 5493 5491 5489 5485 5482 5479 5476 5473 5471 5468 5466 5464 5462 5460 5459 5457 5456 5455 5453 5452 5451 5450 5449 5448 5448 5447 5447 5447
5514 5512 5511 5508 5506 5504 5502 5501 5500 5498 5496 5494 5492 5490 5487 5485 5482 5480 5477 5474 5471 5468 5465 5462 5459 5457 5454 5452 5450 5448 5445 5443 5442 5440 5439 5437 5436 5436 5435 5434 5433 5432 5431
5504 5502 5500 5498 5496 5495 5493 5492 5491 5489 5487 5485 5483 5480 5478 5476 5473 5471 5468 5464 5461 5458 5455 5452 5450 5447 5444 5442 5439 5437 5435 5432 5429 5427 5425 5424 5423 5422 5421 5420 5418 5417 5416
5493 5491 5490 5488 5486 5485 5484 5483 5481 5479 5478 5475 5473 5471 5468 5465 5463 5460 5457 5454 5451 5447 5444 5441 5439 5436 5433 5431 5428 5426 5423 5421 5418 5415 5412 5411 5409 5408 5406 5405 5404 5403 5401
5482 5481 5480 5478 5477 5476 5475 5473 5472 5470 5467 5465 5463 5460 5457 5454 5452 5449 5446 5442 5439 5436 5432 5429 5427 5424 5422 5419 5416 5414 5411 5408 5406 5403 5400 5398 5396 5394 5392 5391 5389 5388 5386
5472 5470 5469 5468 5467 5466 5464 5463 5461 5459 5457 5455 5452 5449 5446 5443 5440 5436 5433 5430 5426 5423 5420 5416 5413 5411 5408 5406 5403 5400 5398 5395 5392 5389 5386 5384 5381 5379 5377 5376 5374 5372 5370
5461 5460 5459 5457 5456 5455 5453 5452 5450 5448 5446 5443 5440 5437 5434 5430 5427 5424 5420 5417 5413 5410 5406 5403 5400 5397 5394 5391 5389 5386 5384 5381 5378 5375 5373 5370 5367 5365 5363 5361 5359 5356 5354
5451 5449 5448 5447 5446 5444 5442 5441 5439 5437 5434 5431 5428 5424 5421 5418 5414 5411 5407 5403 5400 5397 5393 5390 5387 5384 5381 5378 5376 5373 5370 5368 5365 5362 5359 5357 5354 5351 5349 5347 5344 5342 5339
5441 5439 5437 5436 5435 5433 5431 5429 5427 5425 5422 5419 5416 5412 5408 5405 5401 5397 5394 5390 5387 5384 5380 5377 5374 5371 5368 5365 5363 5360 5357 5355 5352 5349 5346 5344 5341 5338 5335 5332 5329 5326 5323
5430 5428 5427 5426 5424 5422 5420 5418 5416 5413 5410 5406 5403 5399 5396 5392 5388 5384 5381 5377 5374 5371 5367 5364 5361 5358 5355 5353 5350 5347 5344 5342 5339 5336 5333 5330 5326 5323 5320 5316 5313 5309 5305
5419 5418 5416 5415 5413 5411 5409 5407 5404 5401 5397 5394 5391 5386 5383 5379 5375 5372 5368 5364 5361 5358 5355 5352 5349 5346 5343 5341 5338 5335 5332 5329 5326 5323 5319 5315 5311 5307 5303 5300 5296 5292 5288
5409 5408 5406 5405 5403 5401 5398 5395 5392 5388 5385 5381 5377 5374 5370 5366 5363 5359 5355 5352 5349 5346 5343 5340 5337 5334 5332 5329 5326 5323 5320 5316 5312 5308 5304 5300 5296 5292 5288 5283 5279 5275 5270